Wind_Speed
8 8 7 8 10 11 13 15 15 16 18 18 18 18 18 17 15 12 9 6 4 5 10 13 16 18 21 21 21 19 18 16 14 12 10 8 6 5 4 3 2 2 1 1
8 8 9 9 10 12 13 14 14 15 16 17 17 16 17 16 14 12 8 6 4 2 7 11 14 17 18 19 19 18 17 15 13 12 9 7 6 5 4 3 3 2 2 1
9 9 9 9 10 12 13 13 13 15 16 16 17 16 16 14 13 11 9 7 5 2 5 9 12 15 16 17 17 17 16 14 13 11 9 8 6 5 4 4 3 3 2 1
10 10 9 9 11 12 12 13 13 14 14 15 16 15 15 14 13 11 9 7 5 3 4 7 10 12 15 16 17 16 15 13 11 10 9 7 6 5 5 4 4 3 2 2
10 10 10 10 11 12 13 13 14 14 13 13 15 12 13 12 12 11 10 7 5 4 3 6 9 11 13 15 15 14 12 11 10 9 8 7 6 5 5 5 4 4 3 3
11 12 11 11 13 13 14 14 14 14 12 11 14 11 10 10 10 10 9 7 5 4 4 5 8 10 11 12 12 12 11 10 9 9 8 7 6 6 6 6 5 5 5 4
12 13 12 13 14 14 14 13 12 11 10 12 13 10 9 8 8 8 7 6 4 3 3 4 6 9 11 11 11 10 10 9 9 9 8 7 7 7 7 7 6 6 7 7
13 13 14 14 14 15 14 13 11 10 10 11 13 10 9 8 7 7 6 5 4 2 1 2 4 7 8 9 9 9 9 9 9 9 9 9 9 9 9 9 8 8 9 9
13 14 16 16 16 16 15 13 12 11 11 9 10 11 10 9 8 7 6 5 4 3 1 2 4 5 7 8 9 9 9 9 9 10 10 10 11 11 11 11 11 11 12 13
16 17 18 18 18 16 14 14 13 10 10 9 9 9 10 10 9 8 7 6 5 4 3 4 5 6 7 8 9 10 10 11 11 12 12 12 13 14 14 14 14 14 15 16
18 18 18 18 18 17 15 14 12 10 10 8 8 10 12 10 10 9 9 8 6 6 5 6 6 7 8 9 10 12 13 13 13 13 14 15 16 16 17 17 18 19 19 20
19 17 17 18 17 16 15 13 12 10 11 9 7 11 12 11 10 9 9 8 8 8 7 7 9 9 10 11 12 13 14 14 15 16 16 17 18 19 20 21 21 22 23 24
20 18 16 16 16 15 14 12 11 11 10 9 7 11 12 11 11 10 9 9 9 9 9 9 10 11 11 12 13 14 15 16 17 17 18 19 21 22 22 23 24 25 26 27
19 18 15 15 16 16 14 13 12 11 9 10 10 12 14 12 13 12 12 12 11 11 11 11 11 12 13 14 14 16 17 18 19 19 20 22 23 24 25 26 27 28 28 29
19 18 16 16 17 16 15 14 13 12 12 12 13 14 15 14 14 15 15 15 15 14 14 14 14 15 16 16 17 18 19 20 20 21 22 24 25 26 27 28 29 29 30 31
20 19 18 17 16 16 16 16 15 14 13 13 14 15 14 15 16 16 18 19 19 18 18 18 19 19 19 20 20 20 21 22 22 23 24 25 26 27 28 29 30 31 32 33
22 20 18 17 18 18 16 16 16 16 16 16 16 16 16 16 16 18 19 20 21 22 23 23 23 23 24 23 23 23 24 24 25 25 26 27 27 29 30 31 32 34 35 36
22 20 19 18 20 20 18 18 18 19 19 18 18 17 17 17 17 19 20 21 22 24 25 26 27 27 27 27 27 27 28 28 28 28 29 30 30 31 32 34 35 36 38 39
22 20 20 20 19 18 20 18 18 19 19 19 19 19 18 18 19 19 20 21 23 25 27 29 29 30 31 32 32 32 32 32 32 32 32 33 34 35 37 38 39 41 41 42
21 21 22 22 21 19 21 19 19 19 19 19 20 19 19 19 20 20 21 23 23 25 27 30 32 33 33 34 35 36 36 35 35 35 35 36 37 38 40 41 43 44 45 46
24 23 23 23 22 22 22 20 19 19 19 19 20 20 20 20 21 22 22 23 24 26 27 29 31 32 33 34 35 35 36 36 36 37 38 39 40 42 43 44 45 46 48 49
24 24 25 24 23 24 22 20 19 19 19 20 21 21 21 22 22 22 23 24 25 26 27 27 28 30 31 32 32 33 34 35 36 37 39 41 42 44 45 46 48 49 50 51
26 25 25 24 24 24 22 21 20 20 20 21 22 22 22 23 24 24 24 25 26 27 27 27 27 29 29 30 31 32 33 35 37 38 40 42 44 45 46 48 49 51 52 54
21 22 23 24 24 23 22 22 22 22 22 22 23 23 24 24 25 26 26 27 28 27 28 29 29 29 30 30 32 33 35 36 38 39 41 43 44 46 48 49 51 53 55 57
20 20 21 21 22 22 22 22 23 23 23 24 24 25 25 26 26 27 28 28 28 29 29 29 29 30 31 32 34 35 36 38 39 41 43 44 46 48 50 52 55 57 59 61
20 21 21 21 21 22 22 23 23 24 24 25 25 26 26 26 27 28 29 29 29 29 29 30 30 32 33 34 35 36 38 40 41 43 45 47 49 52 54 56 58 60 62 64
Wind_Direction
307 307 313 315 326 330 335 335 334 333 336 341 344 345 346 349 347 348 348 343 308 224 207 201 201 205 204 202 200 202 203 205 205 201 201 201 203 204 211 221 225 238 254 285
290 294 303 312 323 328 334 335 334 334 338 342 344 346 347 350 353 356 359 0 353 217 193 197 197 200 198 197 198 198 197 197 198 199 196 197 197 202 207 210 213 215 219 238
272 279 294 308 319 325 331 334 332 335 339 344 348 351 352 354 356 1 6 9 18 85 173 183 188 193 194 191 190 193 194 195 198 197 195 197 196 197 202 206 205 204 208 221
263 274 286 301 310 318 325 328 332 337 341 341 348 351 352 359 1 3 8 17 27 66 137 165 176 181 184 185 185 188 190 194 197 197 200 200 197 200 204 208 205 205 213 221
254 264 276 287 299 308 316 325 329 334 334 337 342 353 350 358 5 10 15 26 41 66 115 149 160 169 177 180 182 186 189 194 198 201 202 202 205 207 209 209 211 217 226 235
250 257 267 281 292 301 308 319 328 334 340 335 332 346 343 350 2 8 16 28 44 67 105 135 161 168 177 181 183 188 193 201 206 208 211 213 215 217 219 220 223 230 239 248
251 259 268 280 290 297 304 317 331 332 329 318 321 331 329 336 348 2 11 19 33 58 97 136 164 178 181 185 188 194 202 209 213 217 222 224 226 227 231 232 234 240 249 257
245 256 269 278 285 292 298 306 308 306 304 310 315 317 316 322 330 345 357 6 15 23 58 171 171 178 184 189 198 207 211 216 223 229 232 234 235 237 239 242 245 249 257 263
244 253 263 274 281 285 289 296 299 306 310 315 303 308 306 309 313 320 332 342 345 342 321 217 208 201 204 207 212 215 222 230 235 238 239 241 244 246 249 251 253 257 261 265
247 257 266 272 279 282 284 289 295 299 301 301 300 299 292 302 305 305 310 318 318 306 288 259 240 232 228 226 228 232 236 240 242 243 245 247 250 253 256 258 260 262 265 267
252 257 265 271 273 279 280 284 287 287 291 294 286 282 283 288 292 293 296 301 305 298 283 267 258 249 244 241 242 243 245 247 249 250 251 252 254 257 260 263 265 267 269 271
249 255 261 270 272 270 274 277 280 282 292 294 281 278 280 281 284 284 286 288 289 288 284 273 261 255 252 251 250 251 253 255 256 257 257 257 258 260 263 266 268 270 272 273
248 252 259 269 274 271 269 272 274 275 279 285 278 277 275 276 277 276 276 279 281 280 277 274 267 262 260 259 258 259 260 261 262 261 260 261 262 263 265 268 270 271 273 275
245 248 246 252 262 269 267 267 270 274 274 277 272 268 271 268 268 270 271 274 277 279 274 269 267 267 268 267 266 264 263 264 264 264 265 266 266 268 269 270 272 274 276 278
243 246 247 252 257 260 259 262 266 270 269 267 267 268 268 265 265 264 266 268 270 271 271 270 269 269 270 270 270 270 269 267 267 266 266 267 269 270 272 273 275 277 279 280
238 241 247 253 257 258 258 259 262 267 270 270 269 270 268 264 262 263 264 263 264 265 266 267 266 266 266 267 269 270 271 270 269 268 267 269 271 272 273 274 276 278 280 280
235 240 247 253 258 258 260 260 261 265 267 267 268 270 271 266 264 262 261 260 261 263 263 264 264 264 264 266 266 266 267 268 268 269 270 271 273 275 276 277 279 280 280 281
233 239 245 247 255 257 257 258 260 263 264 266 267 270 270 268 267 264 263 262 261 262 263 263 263 262 262 263 264 265 264 265 267 269 270 273 275 276 278 279 279 280 281 281
228 234 242 246 254 261 261 260 261 264 265 265 266 268 268 271 270 267 265 265 264 263 262 262 261 260 260 261 262 261 263 264 265 268 270 273 275 277 279 280 281 282 282 282
234 237 242 246 247 252 258 262 262 266 267 266 267 268 269 274 273 270 267 266 266 265 263 260 259 260 260 260 258 260 261 262 263 266 270 273 276 278 279 280 281 282 282 282
236 241 243 248 252 254 257 260 261 264 266 267 268 269 270 273 274 273 270 268 268 268 266 264 260 257 259 262 261 261 265 266 269 271 274 277 279 280 281 282 282 283 283 284
238 244 245 248 251 254 257 259 260 263 267 269 269 271 272 273 273 273 273 272 272 270 269 267 263 261 262 264 264 267 269 270 272 274 277 279 280 281 282 283 283 284 284 285
238 240 244 245 248 253 257 258 261 265 269 270 270 273 274 273 272 273 273 272 272 271 270 271 270 270 270 271 273 275 275 276 276 278 280 281 282 282 283 284 285 285 285 285
240 237 240 242 246 252 255 258 261 265 268 270 271 273 276 276 272 271 271 271 272 272 272 272 273 274 275 276 277 279 279 280 281 282 283 283 284 285 286 286 286 286 286 286
239 239 241 244 249 253 256 260 264 266 268 270 272 274 275 274 274 274 273 273 274 276 276 278 278 279 279 279 280 282 283 284 285 285 286 287 287 288 288 288 288 288 288 287
244 246 248 252 254 257 260 263 266 268 270 272 274 276 275 276 277 276 274 273 273 275 277 280 282 282 283 284 285 286 287 288 288 289 289 290 290 290 290 290 290 290 289 289
Height
5897 5898 5897 5896 5894 5892 5890 5888 5885 5882 5878 5875 5871 5867 5863 5859 5855 5851 5848 5846 5845 5844 5845 5846 5849 5852 5855 5859 5864 5867 5870 5873 5875 5877 5879 5880 5882 5882 5882 5882 5882 5883 5883 5883
5896 5896 5895 5894 5892 5891 5889 5886 5884 5880 5876 5873 5870 5867 5863 5858 5855 5852 5849 5847 5845 5844 5844 5846 5848 5851 5855 5858 5862 5866 5869 5872 5874 5877 5878 5879 5880 5881 5881 5881 5882 5882 5882 5882
5893 5894 5892 5892 5891 5889 5887 5885 5882 5879 5876 5872 5870 5867 5863 5859 5856 5853 5850 5847 5846 5845 5845 5846 5848 5851 5854 5858 5862 5865 5868 5871 5874 5875 5877 5878 5879 5880 5880 5881 5881 5881 5881 5881
5890 5891 5890 5890 5889 5887 5886 5884 5881 5878 5875 5873 5871 5868 5864 5860 5856 5854 5851 5849 5847 5846 5846 5847 5849 5851 5854 5858 5861 5865 5868 5871 5873 5874 5876 5877 5878 5879 5879 5880 5880 5881 5881 5881
5888 5888 5888 5888 5887 5886 5884 5882 5879 5876 5874 5872 5870 5868 5866 5861 5858 5855 5853 5851 5849 5849 5848 5849 5850 5852 5855 5859 5861 5865 5868 5870 5872 5874 5875 5876 5877 5878 5878 5879 5879 5880 5880 5880
5885 5885 5885 5885 5885 5883 5882 5880 5878 5875 5874 5873 5870 5868 5866 5862 5860 5857 5855 5853 5852 5851 5851 5851 5852 5853 5856 5859 5862 5865 5867 5869 5871 5872 5873 5874 5875 5876 5877 5878 5878 5878 5879 5879
5882 5883 5883 5883 5882 5881 5880 5879 5879 5878 5876 5874 5869 5867 5865 5862 5860 5858 5857 5856 5854 5854 5853 5853 5853 5854 5857 5859 5862 5864 5866 5868 5870 5871 5872 5873 5874 5875 5875 5876 5876 5877 5877 5877
5880 5881 5880 5880 5879 5878 5877 5877 5877 5876 5875 5872 5867 5865 5864 5861 5860 5859 5857 5856 5856 5855 5855 5855 5854 5855 5858 5860 5862 5864 5866 5867 5869 5870 5871 5871 5872 5873 5874 5874 5874 5874 5875 5875
5877 5878 5877 5876 5875 5875 5874 5873 5873 5872 5870 5869 5867 5864 5862 5860 5859 5858 5857 5857 5856 5856 5856 5856 5856 5857 5858 5860 5861 5863 5865 5866 5867 5868 5869 5870 5870 5871 5871 5871 5872 5872 5872 5872
5872 5873 5873 5872 5871 5871 5870 5869 5869 5868 5867 5867 5866 5864 5862 5859 5858 5857 5857 5856 5856 5856 5856 5856 5856 5857 5858 5859 5861 5862 5863 5864 5865 5866 5866 5867 5868 5868 5868 5868 5868 5868 5868 5868
5867 5868 5869 5867 5867 5867 5866 5866 5865 5865 5864 5864 5864 5864 5858 5857 5856 5855 5855 5855 5855 5855 5855 5855 5856 5856 5857 5858 5859 5860 5861 5862 5862 5863 5863 5864 5864 5865 5865 5865 5865 5864 5864 5864
5862 5863 5864 5863 5862 5862 5861 5861 5861 5862 5860 5859 5860 5862 5855 5854 5854 5853 5853 5853 5853 5853 5853 5853 5853 5854 5855 5856 5856 5857 5858 5858 5859 5859 5859 5860 5860 5860 5860 5860 5860 5860 5859 5859
5857 5858 5859 5859 5860 5858 5857 5857 5857 5857 5857 5857 5857 5859 5852 5851 5851 5850 5850 5850 5850 5850 5850 5850 5851 5851 5852 5852 5853 5853 5853 5854 5854 5855 5855 5855 5855 5855 5855 5855 5854 5854 5853 5852
5852 5853 5856 5857 5855 5853 5853 5853 5853 5853 5854 5854 5853 5852 5849 5848 5848 5847 5847 5847 5847 5847 5847 5847 5848 5848 5848 5848 5849 5849 5849 5849 5850 5850 5850 5850 5850 5850 5849 5849 5848 5848 5847 5846
5846 5847 5848 5849 5849 5849 5849 5849 5849 5849 5849 5849 5849 5847 5845 5845 5844 5844 5843 5843 5843 5843 5843 5844 5844 5844 5844 5844 5844 5844 5845 5845 5844 5844 5844 5844 5844 5844 5843 5842 5842 5841 5840 5838
5840 5842 5843 5843 5843 5844 5844 5845 5844 5844 5844 5844 5843 5842 5841 5840 5839 5839 5839 5839 5839 5839 5839 5839 5839 5839 5839 5839 5839 5839 5839 5839 5839 5838 5838 5838 5837 5837 5836 5835 5834 5833 5831 5830
5833 5836 5838 5839 5839 5839 5840 5840 5840 5839 5839 5838 5838 5838 5836 5835 5834 5834 5834 5833 5833 5833 5833 5833 5833 5833 5833 5833 5833 5833 5833 5833 5832 5832 5831 5831 5830 5829 5828 5827 5826 5824 5822 5821
5827 5829 5831 5833 5834 5834 5837 5834 5834 5833 5833 5833 5832 5832 5831 5830 5829 5828 5828 5827 5827 5827 5827 5827 5826 5826 5826 5826 5826 5826 5825 5825 5825 5824 5824 5823 5822 5821 5819 5818 5817 5815 5813 5811
5819 5823 5825 5827 5828 5829 5829 5828 5828 5827 5827 5826 5826 5825 5825 5824 5823 5822 5821 5821 5821 5820 5820 5820 5819 5819 5819 5819 5818 5818 5817 5817 5816 5816 5815 5814 5813 5812 5810 5809 5807 5804 5802 5800
5813 5816 5819 5820 5822 5823 5823 5822 5821 5822 5821 5820 5819 5819 5819 5818 5817 5817 5815 5814 5814 5813 5812 5812 5811 5811 5810 5810 5810 5809 5808 5807 5807 5806 5806 5805 5804 5802 5800 5798 5796 5793 5790 5787
5806 5809 5811 5813 5814 5816 5815 5815 5816 5817 5816 5814 5813 5813 5812 5812 5811 5810 5808 5807 5807 5805 5804 5803 5803 5802 5802 5801 5801 5800 5799 5798 5797 5797 5796 5795 5793 5791 5789 5786 5784 5781 5778 5774
5799 5802 5804 5806 5808 5810 5807 5808 5809 5809 5808 5808 5807 5807 5806 5805 5803 5802 5801 5800 5799 5798 5797 5796 5795 5794 5794 5793 5792 5791 5790 5789 5788 5787 5786 5784 5782 5780 5777 5774 5771 5768 5764 5761
5791 5794 5796 5799 5801 5800 5800 5801 5801 5802 5801 5801 5801 5800 5799 5797 5796 5795 5794 5793 5792 5791 5790 5789 5788 5787 5786 5785 5784 5783 5782 5781 5779 5777 5775 5773 5771 5768 5764 5761 5758 5754 5750 5746
5784 5786 5788 5790 5791 5792 5793 5794 5794 5795 5795 5794 5793 5793 5792 5790 5789 5788 5787 5786 5784 5783 5782 5781 5780 5779 5778 5777 5776 5774 5773 5771 5769 5767 5764 5761 5758 5755 5751 5747 5743 5739 5734 5729
5777 5779 5781 5783 5784 5785 5786 5787 5787 5787 5787 5787 5786 5785 5784 5783 5782 5781 5779 5778 5777 5776 5775 5773 5772 5771 5770 5769 5767 5765 5763 5761 5758 5755 5752 5749 5745 5741 5737 5732 5727 5722 5717 5711
5771 5774 5775 5777 5778 5779 5780 5780 5780 5780 5780 5779 5778 5777 5776 5775 5774 5772 5771 5770 5769 5768 5767 5766 5764 5763 5761 5759 5757 5755 5752 5749 5746 5743 5739 5735 5730 5726 5721 5716 5710 5704 5698 5692